• In Deutschland
  • Länderverzeichnis
  • Für 7 Tage
  • Wassertemperatur
  • Satellitenkarten
  • Wetterkarte
  • Widgets
  • user-avatar
    Anmelden

    Stündliche Wetter Buenos Aires

    Heute, 20 November, Montag

    Zeit Temperatur Niederschläge Wind Luftdruck Luftfeuchtigkeit
    00:00 +14°C° 0 mm 5 m/S 759 mmHg 59%
    01:00 +13°C° 0 mm 5 m/S 759 mmHg 61%
    02:00 +13°C° 0 mm 5 m/S 759 mmHg 62%
    03:00 +13°C° 0 mm 5 m/S 759 mmHg 64%
    04:00 +13°C° 0 mm 5 m/S 759 mmHg 65%
    05:00 +13°C° 0 mm 5 m/S 759 mmHg 67%
    06:00 +14°C° 0,1 mm 5 m/S 759 mmHg 66%
    07:00 +14°C° 0,1 mm 6 m/S 760 mmHg 65%
    08:00 +15°C° 0,1 mm 6 m/S 760 mmHg 64%
    09:00 +15°C° 0,4 mm 6 m/S 760 mmHg 66%
    10:00 +16°C° 0,4 mm 5 m/S 760 mmHg 67%
    11:00 +17°C° 0,4 mm 4 m/S 759 mmHg 69%
    12:00 +17°C° 0,7 mm 4 m/S 759 mmHg 69%
    13:00 +18°C° 0,7 mm 3 m/S 759 mmHg 69%
    14:00 +18°C° 0,7 mm 3 m/S 759 mmHg 68%
    15:00 +18°C° 0,8 mm 3 m/S 758 mmHg 71%
    16:00 +18°C° 0,8 mm 4 m/S 758 mmHg 74%
    17:00 +18°C° 0,8 mm 4 m/S 758 mmHg 77%
    18:00 +17°C° 0 mm 3 m/S 758 mmHg 79%
    19:00 +16°C° 0 mm 2 m/S 758 mmHg 82%
    20:00 +15°C° 0 mm 2 m/S 758 mmHg 84%
    21:00 +16°C° 0 mm 2 m/S 759 mmHg 83%
    22:00 +16°C° 0 mm 3 m/S 760 mmHg 82%
    23:00 +15°C° 0 mm 4 m/S 760 mmHg 81%

    Morgen, 21 November, Dienstag

    Zeit Temperatur Niederschläge Wind Luftdruck Luftfeuchtigkeit
    00:00 +14°C° 0 mm 4 m/S 761 mmHg 77%
    01:00 +13°C° 0 mm 5 m/S 761 mmHg 74%
    02:00 +12°C° 0 mm 5 m/S 761 mmHg 70%
    03:00 +12°C° 0 mm 5 m/S 762 mmHg 69%
    04:00 +11°C° 0 mm 4 m/S 762 mmHg 68%
    05:00 +11°C° 0 mm 4 m/S 763 mmHg 66%
    06:00 +13°C° 0 mm 4 m/S 763 mmHg 58%
    07:00 +15°C° 0 mm 4 m/S 763 mmHg 49%
    08:00 +18°C° 0 mm 3 m/S 763 mmHg 41%
    09:00 +19°C° 0 mm 3 m/S 763 mmHg 36%
    10:00 +20°C° 0 mm 3 m/S 763 mmHg 32%
    11:00 +22°C° 0 mm 3 m/S 763 mmHg 28%
    12:00 +22°C° 0 mm 3 m/S 763 mmHg 27%
    13:00 +24°C° 0 mm 3 m/S 762 mmHg 26%
    14:00 +25°C° 0 mm 3 m/S 762 mmHg 26%
    15:00 +24°C° 0 mm 3 m/S 762 mmHg 28%
    16:00 +24°C° 0 mm 3 m/S 762 mmHg 31%
    17:00 +22°C° 0 mm 3 m/S 761 mmHg 33%
    18:00 +21°C° 0 mm 3 m/S 762 mmHg 38%
    19:00 +19°C° 0 mm 3 m/S 762 mmHg 43%
    20:00 +17°C° 0 mm 2 m/S 763 mmHg 48%
    21:00 +17°C° 0 mm 3 m/S 763 mmHg 51%
    22:00 +15°C° 0 mm 4 m/S 763 mmHg 54%
    23:00 +15°C° 0 mm 4 m/S 763 mmHg 58%

    übermorgen, 22 November, Mittwoch

    Zeit Temperatur Niederschläge Wind Luftdruck Luftfeuchtigkeit
    00:00 +14°C° 0 mm 5 m/S 762 mmHg 60%
    01:00 +14°C° 0 mm 5 m/S 761 mmHg 62%
    02:00 +14°C° 0 mm 5 m/S 761 mmHg 64%
    03:00 +13°C° 0 mm 5 m/S 761 mmHg 65%
    04:00 +13°C° 0 mm 5 m/S 761 mmHg 65%
    05:00 +13°C° 0 mm 5 m/S 760 mmHg 66%
    06:00 +14°C° 0 mm 6 m/S 760 mmHg 59%
    07:00 +16°C° 0 mm 6 m/S 761 mmHg 53%
    08:00 +19°C° 0 mm 6 m/S 761 mmHg 46%
    09:00 +21°C° 0 mm 6 m/S 760 mmHg 41%
    10:00 +23°C° 0 mm 6 m/S 760 mmHg 36%
    11:00 +26°C° 0 mm 6 m/S 759 mmHg 31%
    12:00 +28°C° 0 mm 6 m/S 758 mmHg 29%
    13:00 +29°C° 0 mm 6 m/S 757 mmHg 28%
    14:00 +30°C° 0 mm 6 m/S 757 mmHg 26%
    15:00 +29°C° 0 mm 6 m/S 756 mmHg 29%
    16:00 +28°C° 0 mm 5 m/S 755 mmHg 32%
    17:00 +28°C° 0 mm 5 m/S 755 mmHg 35%
    18:00 +26°C° 0,1 mm 5 m/S 755 mmHg 41%
    19:00 +23°C° 0,1 mm 6 m/S 754 mmHg 46%
    20:00 +22°C° 0,1 mm 6 m/S 754 mmHg 52%
    21:00 +22°C° 0 mm 6 m/S 754 mmHg 52%
    22:00 +21°C° 0 mm 6 m/S 754 mmHg 52%
    23:00 +21°C° 0 mm 6 m/S 755 mmHg 52%

    23 November, Donnerstag

    Zeit Temperatur Niederschläge Wind Luftdruck Luftfeuchtigkeit
    00:00 +21°C° 0,1 mm 6 m/S 754 mmHg 52%
    01:00 +20°C° 0,1 mm 6 m/S 754 mmHg 53%
    02:00 +20°C° 0,1 mm 6 m/S 754 mmHg 53%
    03:00 +19°C° 0 mm 5 m/S 755 mmHg 56%
    04:00 +18°C° 0 mm 4 m/S 755 mmHg 58%
    05:00 +18°C° 0 mm 3 m/S 755 mmHg 61%
    06:00 +20°C° 0 mm 3 m/S 755 mmHg 53%
    07:00 +22°C° 0 mm 4 m/S 756 mmHg 45%
    08:00 +25°C° 0 mm 4 m/S 756 mmHg 37%
    09:00 +27°C° 0 mm 4 m/S 755 mmHg 34%
    10:00 +28°C° 0 mm 4 m/S 755 mmHg 31%
    11:00 +30°C° 0 mm 4 m/S 755 mmHg 28%
    12:00 +32°C° 0 mm 4 m/S 754 mmHg 27%
    13:00 +33°C° 0 mm 4 m/S 754 mmHg 25%
    14:00 +35°C° 0 mm 4 m/S 753 mmHg 24%
    15:00 +33°C° 0,1 mm 4 m/S 753 mmHg 29%
    16:00 +32°C° 0,1 mm 4 m/S 753 mmHg 35%
    17:00 +29°C° 0,1 mm 4 m/S 753 mmHg 41%
    18:00 +27°C° 0,7 mm 5 m/S 754 mmHg 50%
    19:00 +23°C° 0,7 mm 6 m/S 755 mmHg 59%
    20:00 +20°C° 0,7 mm 8 m/S 756 mmHg 68%
    21:00 +18°C° 1,1 mm 8 m/S 758 mmHg 69%
    22:00 +16°C° 1,1 mm 8 m/S 759 mmHg 69%
    23:00 +13°C° 1,1 mm 8 m/S 760 mmHg 69%

    24 November, Freitag

    Zeit Temperatur Niederschläge Wind Luftdruck Luftfeuchtigkeit
    00:00 +12°C° 0,1 mm 7 m/S 760 mmHg 66%
    01:00 +12°C° 0,1 mm 7 m/S 761 mmHg 63%
    02:00 +11°C° 0,1 mm 7 m/S 761 mmHg 60%
    03:00 +11°C° 0 mm 6 m/S 761 mmHg 58%
    04:00 +10°C° 0 mm 6 m/S 762 mmHg 57%
    05:00 +10°C° 0 mm 5 m/S 762 mmHg 56%
    06:00 +12°C° 0 mm 5 m/S 762 mmHg 51%
    07:00 +14°C° 0 mm 4 m/S 763 mmHg 47%
    08:00 +15°C° 0 mm 4 m/S 763 mmHg 43%
    09:00 +18°C° 0 mm 4 m/S 763 mmHg 39%
    10:00 +19°C° 0 mm 4 m/S 763 mmHg 36%
    11:00 +20°C° 0 mm 4 m/S 762 mmHg 33%
    12:00 +21°C° 0 mm 4 m/S 762 mmHg 33%
    13:00 +22°C° 0 mm 5 m/S 761 mmHg 33%
    14:00 +22°C° 0 mm 5 m/S 761 mmHg 33%
    15:00 +22°C° 0 mm 5 m/S 761 mmHg 36%
    16:00 +21°C° 0 mm 5 m/S 761 mmHg 39%
    17:00 +20°C° 0 mm 5 m/S 760 mmHg 43%
    18:00 +19°C° 0 mm 5 m/S 761 mmHg 48%
    19:00 +17°C° 0 mm 5 m/S 761 mmHg 53%
    20:00 +16°C° 0 mm 5 m/S 761 mmHg 58%
    21:00 +16°C° 0 mm 5 m/S 761 mmHg 61%
    22:00 +16°C° 0 mm 5 m/S 761 mmHg 64%
    23:00 +15°C° 0 mm 5 m/S 761 mmHg 67%

    25 November, Samstag

    Zeit Temperatur Niederschläge Wind Luftdruck Luftfeuchtigkeit
    00:00 +15°C° 0 mm 4 m/S 761 mmHg 69%
    01:00 +15°C° 0 mm 4 m/S 760 mmHg 70%
    02:00 +15°C° 0 mm 4 m/S 760 mmHg 72%
    03:00 +15°C° 0 mm 4 m/S 760 mmHg 73%
    04:00 +14°C° 0 mm 4 m/S 761 mmHg 75%
    05:00 +14°C° 0 mm 3 m/S 761 mmHg 77%
    06:00 +17°C° 0 mm 3 m/S 761 mmHg 70%
    07:00 +19°C° 0 mm 3 m/S 761 mmHg 64%
    08:00 +20°C° 0 mm 3 m/S 761 mmHg 58%
    09:00 +22°C° 0 mm 3 m/S 761 mmHg 52%
    10:00 +25°C° 0 mm 2 m/S 760 mmHg 46%
    11:00 +27°C° 0 mm 2 m/S 760 mmHg 40%
    12:00 +28°C° 0 mm 1 m/S 759 mmHg 38%
    13:00 +30°C° 0 mm 1 m/S 759 mmHg 36%
    14:00 +31°C° 0 mm 1 m/S 758 mmHg 35%
    15:00 +30°C° 0 mm 2 m/S 758 mmHg 37%
    16:00 +29°C° 0 mm 2 m/S 758 mmHg 38%
    17:00 +29°C° 0 mm 2 m/S 757 mmHg 40%
    18:00 +27°C° 0 mm 3 m/S 758 mmHg 46%
    19:00 +25°C° 0 mm 3 m/S 758 mmHg 52%
    20:00 +22°C° 0 mm 3 m/S 758 mmHg 58%
    21:00 +22°C° 0 mm 3 m/S 758 mmHg 62%
    22:00 +21°C° 0 mm 3 m/S 758 mmHg 66%
    23:00 +20°C° 0 mm 2 m/S 758 mmHg 70%
    Mehr zeigen